FW6835 Weather Reports


time (UTC)temp
C
wind
direction
speed
KPH
gust
KPH
rain 1hr
cm
rain 24hr
cm
rain mn
cm
humidity
%
barometer
mb
20221203070058 -1 81 0.0 0.0 0.00 0.00 0.00 98 1024.3
20221203065557 -1 134 0.0 0.0 0.00 0.00 0.00 98 1024.2
20221203065057 -1 118 0.0 0.0 0.00 0.00 0.00 98 1024.4
20221203064656 -1 103 0.0 0.0 0.00 0.00 0.00 98 1024.3
20221203064055 -1 159 0.0 0.0 0.00 0.00 0.00 98 1024.3
20221203063555 -1 141 0.0 0.0 0.00 0.00 0.00 98 1024.3
20221203063109 -1 63 0.0 0.0 0.00 0.00 0.00 98 1024.3
20221203062555 -1 121 0.0 0.0 0.00 0.00 0.00 98 1024.2
20221203062054 -1 44 0.0 0.0 0.00 0.00 0.00 98 1024.1
20221203061555 -1 119 0.0 0.0 0.00 0.00 0.00 98 1024.3
20221203061054 -1 80 0.0 0.0 0.00 0.00 0.00 98 1024.1
20221203060554 -1 62 0.0 0.0 0.00 0.00 0.00 98 1024.1
20221203060054 -1 189 0.0 0.0 0.00 0.00 0.00 98 1024.1
20221203055554 -1 165 0.0 0.0 0.00 0.00 0.00 98 1024.2
20221203055053 -1 90 0.0 0.0 0.00 0.00 0.00 98 1024.1
20221203054610 -1 40 0.0 0.0 0.00 0.00 0.00 98 1024.2
20221203054053 -1 40 0.0 0.0 0.00 0.00 0.00 98 1024.2
20221203053553 -1 76 0.0 0.0 0.00 0.00 0.00 98 1024.2
20221203053052 -1 113 0.0 0.0 0.00 0.00 0.00 97 1024.2
20221203052554 -1 134 0.0 0.0 0.00 0.00 0.00 97 1024.3
20221203052054 -1 163 0.0 0.0 0.00 0.00 0.00 97 1024.2
20221203051558 -1 87 0.0 0.0 0.00 0.00 0.00 97 1024.3
20221203051052 -1 47 0.0 0.0 0.00 0.00 0.00 97 1024.3
20221203050554 -1 86 0.0 0.0 0.00 0.00 0.00 97 1024.3
20221203050051 -1 96 0.0 0.0 0.00 0.00 0.00 98 1024.3
20221203045555 -1 37 0.0 0.0 0.00 0.00 0.00 98 1024.4
20221203045051 -1 129 0.0 0.0 0.00 0.00 0.00 98 1024.3
20221203044551 -1 75 0.0 0.0 0.00 0.00 0.00 98 1024.3
20221203044050 -1 148 0.0 0.0 0.00 0.00 0.00 98 1024.3
20221203043549 -1 65 0.0 0.0 0.00 0.00 0.00 98 1024.3
20221203043049 -1 84 0.0 0.0 0.00 0.00 0.00 98 1024.3
20221203042550 -1 71 0.0 0.0 0.00 0.00 0.00 97 1024.3
20221203042049 -1 71 0.0 0.0 0.00 0.00 0.00 97 1024.3
20221203041549 -1 53 0.0 0.0 0.00 0.00 0.00 97 1024.4
20221203041049 -1 133 0.0 0.0 0.00 0.00 0.00 97 1024.3
20221203040549 -1 165 0.0 0.0 0.00 0.00 0.00 97 1024.3
20221203040048 -1 131 0.0 0.0 0.00 0.00 0.00 97 1024.4
20221203035550 -1 90 0.0 0.0 0.00 0.00 0.00 97 1024.5
20221203035046 -1 103 0.0 0.0 0.00 0.00 0.00 97 1024.5
20221203034548 -1 80 0.0 0.0 0.00 0.00 0.00 97 1024.5
20221203034046 -1 98 0.0 0.0 0.00 0.00 0.00 97 1024.5
20221203033546 -1 94 0.0 0.0 0.00 0.00 0.00 97 1024.4
20221203033047 -1 82 0.0 0.0 0.00 0.00 0.00 97 1024.5
20221203032545 -1 137 0.0 0.0 0.00 0.00 0.00 97 1024.5
20221203032044 -1 88 0.0 0.0 0.00 0.00 0.00 97 1024.5
20221203031544 -1 70 0.0 0.0 0.00 0.00 0.00 97 1024.6
20221203031043 -1 67 0.0 0.0 0.00 0.00 0.00 97 1024.5
20221203030543 -1 32 0.0 0.0 0.00 0.00 0.00 97 1024.6
20221203030054 -1 44 0.0 0.0 0.00 0.00 0.00 97 1024.6
20221203025543 -1 99 0.0 0.0 0.00 0.00 0.00 97 1024.6
20221203025043 -1 140 0.0 0.0 0.00 0.00 0.00 97 1024.6
20221203024543 -1 80 0.0 0.0 0.00 0.00 0.00 97 1024.5
20221203024042 -1 25 0.0 0.0 0.00 0.00 0.00 97 1024.5
20221203023542 -1 119 0.0 0.0 0.00 0.00 0.00 97 1024.7
20221203023045 -1 85 0.0 0.0 0.00 0.00 0.00 97 1024.6
20221203022543 -1 115 0.0 0.0 0.00 0.00 0.00 97 1024.6
20221203022048 -1 81 0.0 0.0 0.00 0.00 0.00 97 1024.6
20221203021541 -1 119 0.0 0.0 0.00 0.00 0.00 97 1024.6
20221203021041 -1 68 0.0 0.0 0.00 0.00 0.00 97 1024.6
20221203020544 -1 23 0.0 0.0 0.00 0.00 0.00 97 1024.6
20221203020040 -1 94 0.0 0.0 0.00 0.00 0.00 97 1024.7
20221203015539 -1 94 0.0 0.0 0.00 0.00 0.00 97 1024.7
20221203015039 -1 96 0.0 0.0 0.00 0.00 0.00 97 1024.8
20221203014544 -1 30 0.0 0.0 0.00 0.00 0.00 97 1024.8
20221203014040 -1 90 0.0 0.0 0.00 0.00 0.00 97 1024.8
20221203013539 -1 92 0.0 0.0 0.00 0.00 0.00 97 1024.8
20221203013038 -1 98 0.0 0.0 0.00 0.00 0.00 97 1024.7
20221203012539 -1 20 0.0 0.0 0.00 0.00 0.00 97 1024.7
20221203012039 -1 96 0.0 0.0 0.00 0.00 0.00 97 1024.8
20221203011538 -1 92 0.0 0.0 0.00 0.00 0.00 97 1024.8
20221203011037 -1 24 0.0 0.0 0.00 0.00 0.00 97 1024.7
20221203010538 -1 78 0.0 0.0 0.00 0.00 0.00 97 1024.7
20221203010050 -1 319 0.0 0.0 0.00 0.00 0.00 97 1024.8
20221203005536 -1 340 0.0 0.0 0.00 0.00 0.00 97 1024.8
20221203005037 -1 9 0.0 0.0 0.00 0.00 0.00 97 1024.8
20221203004536 -1 350 0.0 0.0 0.00 0.00 0.00 97 1024.8
20221203004035 -1 32 0.0 0.0 0.00 0.00 0.00 96 1024.8
20221203003534 -2 43 0.0 0.0 0.00 0.00 0.00 96 1024.9
20221203003045 -2 12 0.0 0.0 0.00 0.00 0.00 96 1024.9
20221203002534 -2 67 0.0 0.0 0.00 0.00 0.00 96 1024.9
20221203002033 -2 5 0.0 0.0 0.00 0.00 0.00 96 1024.8
20221203001547 -2 21 0.0 0.0 0.00 0.00 0.00 96 1024.9
20221203001036 -2 70 0.0 0.0 0.00 0.00 0.00 96 1024.9
20221203000533 -2 17 0.0 0.0 0.00 0.00 0.00 96 1025.0
20221203000033 -2 48 0.0 0.0 0.00 0.00 0.00 96 1025.1
20221202235535 -2 58 0.0 0.0 0.00 0.00 0.00 97 1024.9
20221202235035 -2 23 0.0 0.0 0.00 0.00 0.00 97 1025.0
20221202234531 -2 14 0.0 0.0 0.00 0.00 0.00 97 1025.0
20221202234030 -2 63 0.0 0.0 0.00 0.00 0.00 97 1025.0
20221202233530 -2 347 0.0 0.0 0.00 0.00 0.00 97 1025.1
20221202233030 -2 266 0.0 0.0 0.00 0.00 0.00 97 1025.0
20221202232529 -2 42 0.0 0.0 0.00 0.00 0.00 96 1025.0
20221202232033 -2 31 0.0 0.0 0.00 0.00 0.00 96 1025.0
20221202231529 -2 19 0.0 0.0 0.00 0.00 0.00 96 1025.0
20221202231028 -2 67 0.0 0.0 0.00 0.00 0.00 96 1025.1
20221202230528 -2 19 0.0 0.0 0.00 0.00 0.00 96 1025.0
20221202230032 -2 344 0.0 0.0 0.00 0.00 0.00 96 1025.1
20221202225526 -2 67 0.0 0.0 0.00 0.00 0.00 96 1025.1
20221202225025 -2 76 0.0 0.0 0.00 0.00 0.00 96 1025.0
20221202224526 -2 350 0.0 0.0 0.00 0.00 0.00 97 1025.1
20221202224025 -2 58 0.0 0.0 0.00 0.00 0.00 97 1025.1
20221202223525 -2 28 0.0 0.0 0.00 0.00 0.00 96 1025.1
20221202223025 -2 46 0.0 0.0 0.00 0.00 0.00 96 1025.2
20221202222525 -2 19 0.0 0.0 0.00 0.00 0.00 96 1025.2
20221202222025 -2 41 0.0 0.0 0.00 0.00 0.00 96 1025.1
20221202221527 -2 59 0.0 0.0 0.00 0.00 0.00 96 1025.3
20221202221024 -2 93 0.0 0.0 0.00 0.00 0.00 96 1025.3
20221202220524 -2 94 0.0 0.0 0.00 0.00 0.00 96 1025.4
20221202220024 -2 16 0.0 0.0 0.00 0.00 0.00 96 1025.3
20221202215527 -2 360 0.0 0.0 0.00 0.00 0.00 96 1025.2
20221202215024 -2 69 0.0 0.0 0.00 0.00 0.00 96 1025.3
20221202214527 -2 69 0.0 0.0 0.00 0.00 0.00 96 1025.2
20221202214023 -2 62 0.0 0.0 0.00 0.00 0.00 97 1025.3
20221202213523 -2 52 0.0 0.0 0.00 0.00 0.00 97 1025.4
20221202213031 -2 50 0.0 0.0 0.00 0.00 0.00 97 1025.3
20221202212522 -2 36 0.0 0.0 0.00 0.00 0.00 97 1025.3
20221202212024 -2 101 0.0 0.0 0.00 0.00 0.00 97 1025.3
20221202211524 -2 308 0.0 0.0 0.00 0.00 0.00 97 1025.2
20221202211022 -2 306 0.0 0.0 0.00 0.00 0.00 97 1025.2
20221202210521 -2 297 0.0 0.0 0.00 0.00 0.00 97 1025.2
20221202210030 -2 313 0.0 0.0 0.00 0.00 0.00 97 1025.2
20221202205524 -2 321 0.0 0.0 0.00 0.00 0.00 97 1025.2
20221202205023 -2 310 0.0 0.0 0.00 0.00 0.00 97 1025.2
20221202204523 -2 83 0.0 0.0 0.00 0.00 0.00 97 1025.2
20221202204020 -2 83 0.0 0.0 0.00 0.00 0.00 97 1025.2
20221202203520 -2 88 0.0 0.0 0.00 0.00 0.00 97 1025.3
20221202203028 -2 286 0.0 0.0 0.00 0.00 0.00 97 1025.3
20221202202520 -2 298 0.0 0.0 0.00 0.00 0.00 97 1025.3
20221202202020 -2 66 0.0 0.0 0.00 0.00 0.00 97 1025.3
20221202201520 -2 45 0.0 1.6 0.00 0.00 0.00 97 1025.3
20221202201020 -2 61 0.0 0.0 0.00 0.00 0.00 97 1025.3
20221202200520 -2 328 0.0 0.0 0.00 0.00 0.00 97 1025.2
20221202200022 -2 325 0.0 0.0 0.00 0.00 0.00 97 1025.1
20221202195519 -2 336 0.0 0.0 0.00 0.00 0.00 97 1025.2
20221202195018 -2 81 0.0 0.0 0.00 0.00 0.00 97 1025.2
20221202194528 -2 322 0.0 0.0 0.00 0.00 0.00 97 1025.1
20221202194018 -2 347 0.0 0.0 0.00 0.00 0.00 97 1025.1
20221202193517 -2 50 0.0 0.0 0.00 0.00 0.00 97 1025.1
20221202193018 -2 342 0.0 0.0 0.00 0.00 0.00 97 1025.2
20221202192517 -2 270 0.0 0.0 0.00 0.00 0.00 97 1025.2
20221202192017 -2 84 0.0 0.0 0.00 0.00 0.00 97 1025.4
20221202191518 -2 85 0.0 0.0 0.00 0.00 0.00 97 1025.2
20221202191017 -2 134 0.0 0.0 0.00 0.00 0.00 97 1025.2
20221202190517 -2 76 0.0 0.0 0.00 0.00 0.00 97 1025.2
20221202190016 -2 59 0.0 0.0 0.00 0.00 0.00 97 1025.3
20221202185516 -2 96 0.0 0.0 0.00 0.00 0.00 97 1025.2
20221202185016 -2 94 0.0 0.0 0.00 0.00 0.00 97 1025.3
20221202184519 -2 288 0.0 0.0 0.00 0.00 0.00 97 1025.2
20221202184016 -2 69 0.0 0.0 0.00 0.00 0.00 97 1025.2
20221202183515 -2 65 0.0 0.0 0.00 0.00 0.00 97 1025.3
20221202183015 -2 360 0.0 0.0 0.00 0.00 0.00 97 1025.3
20221202182514 -2 276 0.0 0.0 0.00 0.00 0.00 97 1025.1
20221202182014 -2 79 0.0 0.0 0.00 0.00 0.00 97 1025.3
20221202181514 -2 78 0.0 0.0 0.00 0.00 0.00 97 1025.3
20221202181017 -2 67 0.0 0.0 0.00 0.00 0.00 97 1025.0
20221202180513 -2 279 0.0 0.0 0.00 0.00 0.00 97 1024.7
20221202180014 -2 59 0.0 0.0 0.00 0.00 0.00 97 1025.1
20221202175513 -2 74 0.0 0.0 0.00 0.00 0.00 97 1025.1
20221202175012 -2 49 0.0 0.0 0.00 0.00 0.00 97 1025.1
20221202174520 -2 44 0.0 0.0 0.00 0.00 0.00 97 1025.1
20221202174011 -2 68 0.0 0.0 0.00 0.00 0.00 97 1025.1
20221202173512 -2 74 0.0 0.0 0.00 0.00 0.00 97 1025.2
20221202173011 -2 80 0.0 0.0 0.00 0.00 0.00 97 1025.1
20221202172515 -2 325 0.0 0.0 0.00 0.00 0.00 97 1025.0
20221202172011 -2 68 0.0 0.0 0.00 0.00 0.00 97 1025.1
20221202171516 -2 80 0.0 0.0 0.00 0.00 0.00 97 1025.0
20221202171012 -2 78 0.0 0.0 0.00 0.00 0.00 97 1024.9
20221202170511 -2 77 0.0 0.0 0.00 0.00 0.00 97 1024.9
20221202170013 -2 83 0.0 0.0 0.00 0.00 0.00 97 1025.1
20221202165510 -2 82 0.0 0.0 0.00 0.00 0.00 97 1025.0
20221202165013 -2 326 0.0 0.0 0.00 0.00 0.00 97 1024.9
20221202164511 -2 79 0.0 0.0 0.00 0.00 0.00 97 1024.8
20221202164010 -2 314 0.0 0.0 0.00 0.00 0.00 97 1024.8
20221202163512 -2 84 0.0 0.0 0.00 0.00 0.00 97 1024.8
20221202163010 -2 286 0.0 0.0 0.00 0.00 0.00 97 1024.9
20221202162512 -2 86 0.0 0.0 0.00 0.00 0.00 97 1024.9
20221202162009 -2 86 0.0 0.0 0.00 0.00 0.00 97 1025.0
20221202161511 -2 63 0.0 0.0 0.00 0.00 0.00 97 1024.9
20221202161008 -2 66 0.0 0.0 0.00 0.00 0.00 97 1024.9
20221202160509 -2 296 0.0 0.0 0.00 0.00 0.00 97 1024.9
20221202160014 -2 297 0.0 0.0 0.00 0.00 0.00 96 1024.9
20221202155508 -2 360 0.0 0.0 0.00 0.00 0.00 97 1024.8
20221202155007 -2 98 0.0 0.0 0.00 0.00 0.00 96 1024.7
20221202154508 -2 274 0.0 0.0 0.00 0.00 0.00 96 1024.8
20221202154007 -2 88 0.0 0.0 0.00 0.00 0.00 97 1024.7
20221202153507 -2 82 0.0 0.0 0.00 0.00 0.00 97 1024.8
20221202153007 -2 5 0.0 0.0 0.00 0.00 0.00 97 1024.7
20221202152506 -2 44 0.0 0.0 0.00 0.00 0.00 97 1024.8
20221202152007 -2 84 0.0 0.0 0.00 0.00 0.00 97 1024.9
20221202151521 -2 85 0.0 0.0 0.00 0.00 0.00 97 1024.8
20221202151009 -2 87 0.0 0.0 0.00 0.00 0.00 97 1024.8
20221202150509 -2 313 0.0 0.0 0.00 0.00 0.00 97 1024.7
20221202150006 -2 69 0.0 0.0 0.00 0.00 0.00 97 1024.7
20221202145506 -2 109 0.0 0.0 0.00 0.00 0.00 97 1024.7
20221202145005 -2 319 0.0 0.0 0.00 0.00 0.00 97 1024.7
20221202144505 -2 69 0.0 0.0 0.00 0.00 0.00 97 1024.8
20221202144005 -2 59 0.0 0.0 0.00 0.00 0.00 96 1024.7
20221202143504 -2 45 0.0 0.0 0.00 0.00 0.00 97 1024.7
20221202143006 -2 116 0.0 0.0 0.00 0.00 0.00 96 1024.7
20221202142505 -2 116 0.0 0.0 0.00 0.00 0.00 96 1024.8
20221202142005 -2 78 0.0 0.0 0.00 0.00 0.00 96 1024.7
20221202141507 -2 80 0.0 0.0 0.00 0.00 0.00 96 1024.7
20221202141004 -2 70 0.0 0.0 0.00 0.00 0.00 96 1024.8
20221202140506 -2 72 0.0 0.0 0.00 0.00 0.00 96 1024.8
20221202140012 -2 23 0.0 0.0 0.00 0.00 0.00 96 1024.8
20221202135507 -2 329 0.0 0.0 0.00 0.00 0.00 96 1024.7
20221202135005 -2 360 0.0 0.0 0.00 0.00 0.00 96 1024.6
20221202134504 -2 65 0.0 0.0 0.00 0.00 0.00 96 1024.7
20221202134004 -2 70 0.0 0.0 0.00 0.00 0.00 96 1024.7
20221202133507 -2 94 0.0 0.0 0.00 0.00 0.00 96 1024.7
20221202133003 -2 94 0.0 0.0 0.00 0.00 0.00 96 1024.7
20221202132503 -2 94 0.0 0.0 0.00 0.00 0.00 96 1024.6
20221202132003 -2 94 0.0 0.0 0.00 0.00 0.00 96 1024.7
20221202131502 -2 94 0.0 0.0 0.00 0.00 0.00 96 1024.7
20221202131002 -2 94 0.0 0.0 0.00 0.00 0.00 96 1024.7
20221202130502 -2 94 0.0 0.0 0.00 0.00 0.00 96 1024.7
20221202130002 -2 102 0.0 0.0 0.00 0.00 0.00 96 1024.6
20221202125501 -2 62 0.0 0.0 0.00 0.00 0.00 96 1024.7
20221202125001 -2 68 0.0 0.0 0.00 0.00 0.00 96 1024.7
20221202124502 -2 77 0.0 0.0 0.00 0.00 0.00 96 1024.7
20221202124100 -2 67 0.0 0.0 0.00 0.00 0.00 97 1024.8
20221202123600 -2 65 0.0 0.0 0.00 0.00 0.00 97 1024.8
20221202123101 -2 65 0.0 0.0 0.00 0.00 0.00 97 1024.8
20221202122559 -2 51 0.0 0.0 0.00 0.00 0.00 97 1024.8
20221202122059 -2 64 0.0 0.0 0.00 0.00 0.00 96 1024.8
20221202121600 -2 66 0.0 0.0 0.00 0.00 0.00 96 1024.9
20221202121102 -2 54 0.0 0.0 0.00 0.00 0.00 96 1024.9
20221202120559 -2 87 0.0 0.0 0.00 0.00 0.00 96 1024.9
20221202120112 -2 88 0.0 0.0 0.00 0.00 0.00 97 1024.8
20221202115558 -2 89 0.0 0.0 0.00 0.00 0.00 97 1024.8
20221202115100 -2 88 0.0 0.0 0.00 0.00 0.00 97 1024.9
20221202114612 -2 88 0.0 0.0 0.00 0.00 0.00 97 1024.8
20221202114057 -2 90 0.0 0.0 0.00 0.00 0.00 97 1024.8
20221202113557 -2 71 0.0 0.0 0.00 0.00 0.00 97 1024.8
20221202113057 -2 67 0.0 0.0 0.00 0.00 0.00 97 1024.8
20221202112558 -2 360 0.0 0.0 0.00 0.00 0.00 97 1024.9
20221202112127 -2 82 0.0 0.0 0.00 0.00 0.00 97 1025.0
20221202112055 -2 82 0.0 0.0 0.00 0.00 0.00 97 1025.0
20221202111556 -2 49 0.0 0.0 0.00 0.00 0.00 97 1025.0
20221202111057 -2 37 0.0 0.0 0.00 0.00 0.00 97 1025.0
20221202110557 -2 90 0.0 0.0 0.00 0.00 0.00 97 1025.1
20221202110103 -2 90 0.0 0.0 0.00 0.00 0.00 97 1025.1
20221202105554 -2 92 0.0 0.0 0.00 0.00 0.00 97 1025.1
20221202105055 -2 90 0.0 0.0 0.00 0.00 0.00 97 1025.0
20221202104556 -2 82 0.0 0.0 0.00 0.00 0.00 97 1025.0
20221202104053 -2 72 0.0 0.0 0.00 0.00 0.00 97 1025.1
20221202103554 -2 73 0.0 0.0 0.00 0.00 0.00 97 1025.1
20221202103103 -2 73 0.0 0.0 0.00 0.00 0.00 97 1025.2
20221202102551 -2 78 0.0 0.0 0.00 0.00 0.00 97 1025.2
20221202102052 -2 42 0.0 0.0 0.00 0.00 0.00 97 1025.2
20221202101552 -2 109 0.0 0.0 0.00 0.00 0.00 97 1025.2
20221202101053 -2 113 0.0 0.0 0.00 0.00 0.00 97 1025.2
20221202100552 -2 336 0.0 0.0 0.00 0.00 0.00 97 1025.2
20221202100103 -2 95 0.0 0.0 0.00 0.00 0.00 97 1025.2
20221202095551 -2 101 0.0 0.0 0.00 0.00 0.00 97 1025.3
20221202095047 -2 101 0.0 0.0 0.00 0.00 0.00 97 1025.3
20221202094547 -2 101 0.0 0.0 0.00 0.00 0.00 97 1025.3
20221202094046 -2 103 0.0 0.0 0.00 0.00 0.00 97 1025.3
20221202093545 -2 67 0.0 0.0 0.00 0.00 0.00 97 1025.2
20221202093046 -2 80 0.0 0.0 0.00 0.00 0.00 97 1025.4
20221202092544 -2 71 0.0 0.0 0.00 0.00 0.00 97 1025.4
20221202092043 -2 76 0.0 0.0 0.00 0.00 0.00 97 1025.5
20221202091544 -2 71 0.0 0.0 0.00 0.00 0.00 97 1025.5
20221202091044 -2 67 0.0 0.0 0.00 0.00 0.00 97 1025.6
20221202090544 -2 44 0.0 0.0 0.00 0.00 0.00 97 1025.6
20221202090107 -2 95 0.0 0.0 0.00 0.00 0.00 97 1025.5
20221202085543 -2 96 0.0 0.0 0.00 0.00 0.00 97 1025.5
20221202085043 -2 96 0.0 0.0 0.00 0.00 0.00 97 1025.4
20221202084543 -2 80 0.0 0.0 0.00 0.00 0.00 97 1025.5
20221202084045 -2 80 0.0 0.0 0.00 0.00 0.00 97 1025.4
20221202083544 -2 73 0.0 0.0 0.00 0.00 0.00 97 1025.5
20221202083053 -2 73 0.0 0.0 0.00 0.00 0.00 97 1025.6
20221202082543 -2 73 0.0 0.0 0.00 0.00 0.00 97 1025.4
20221202082042 -2 94 0.0 0.0 0.00 0.00 0.00 97 1025.6
20221202081549 -2 98 0.0 0.0 0.00 0.00 0.00 97 1025.5
20221202081040 -2 98 0.0 0.0 0.00 0.00 0.00 97 1025.4
20221202080540 -2 98 0.0 0.0 0.00 0.00 0.00 97 1025.4
20221202080040 -2 98 0.0 0.0 0.00 0.00 0.00 97 1025.5
20221202075541 -2 98 0.0 0.0 0.00 0.00 0.00 97 1025.5
20221202075040 -2 98 0.0 0.0 0.00 0.00 0.00 97 1025.4
20221202074539 -2 98 0.0 0.0 0.00 0.00 0.00 97 1025.5
20221202074042 -2 98 0.0 0.0 0.00 0.00 0.00 97 1025.4
20221202073542 -2 355 0.0 0.0 0.00 0.00 0.00 97 1025.5
20221202073042 -2 355 0.0 0.0 0.00 0.00 0.00 97 1025.4
20221202072538 -2 355 0.0 0.0 0.00 0.00 0.00 97 1025.4
20221202072038 -2 355 0.0 0.0 0.00 0.00 0.00 97 1025.3
20221202071554 -2 98 0.0 0.0 0.00 0.00 0.00 97 1025.4
20221202071037 -2 59 0.0 0.0 0.00 0.00 0.00 97 1025.5
20221202070539 -2 78 0.0 0.0 0.00 0.00 0.00 97 1025.4